Weather History for KP53 - March, 2013

Change the Weather History Date:

Saturday, March 30, 2013

  Actual Average (KISQ) Record (KISQ)
Temperature  
Mean Temperature 36 °F -  
Max Temperature 43 °F 40 °F 57 °F (1968)
Min Temperature 30 °F 24 °F 4 °F (1969)
Degree Days  
Heating Degree Days 28    
Moisture  
Dew Point 26 °F    
Average Humidity 69    
Maximum Humidity 86    
Minimum Humidity 43    
Precipitation  
Precipitation 0.21 in - - ()
Sea Level Pressure  
Sea Level Pressure 29.96 in    
Wind  
Wind Speed 11 mph (SSW)    
Max Wind Speed 20 mph    
Max Gust Speed 25 mph    
Averages and records for this station are not official NWS values.
T = Trace of Precipitation, MM = Missing Value Source: NWS Daily Summary

Daily Weather History Graph

Daily Weather History Graph

Search for Another Location

Airport or City:

Trip Planner

Search our weather history database for the weather conditions in past years. The results will help you decide how hot, cold, wet, or windy it might be!

Date:

Astronomy

Mar. 30, 2013 Rise Set
Actual Time 7:29 AM EDT 8:13 PM EDT
Civil Twilight 6:59 AM EDT 8:43 PM EDT
Nautical Twilight 6:23 AM EDT 9:19 PM EDT
Astronomical Twilight 5:45 AM EDT 9:57 PM EDT
Moon No Moon Rise 9:11 AM EDT (3/30)
Length of Visible Light 13h 44m
Length of Day
12h 43m
Waning Gibbous, 86% of the Moon is Illuminated
Mar 30
Waning Gibbous
Apr 3
Last Quarter
Apr 10
New
Apr 18
First Quarter
Apr 25
Full

Hourly Weather History & Observations

Time (EDT) Temp. Windchill Dew Point Humidity Pressure Visibility Wind Dir Wind Speed Gust Speed Precip Events Conditions
12:56 AM 35.1 °F 27.9 °F 18.0 °F 50% 30.16 in - SSW 9.2 mph - N/A   Unknown
1:56 AM 34.0 °F 26.0 °F 18.0 °F 52% 30.15 in - SSW 10.4 mph - N/A   Unknown
2:56 AM 35.1 °F 26.9 °F 19.0 °F 52% 30.14 in - SSW 11.5 mph - N/A   Unknown
3:56 AM 33.1 °F 24.9 °F 19.0 °F 56% 30.13 in - SSW 10.4 mph - N/A   Unknown
4:56 AM 32.0 °F 23.6 °F 19.0 °F 59% 30.11 in - SSW 10.4 mph - N/A   Unknown
5:56 AM 32.0 °F 23.6 °F 19.0 °F 59% 30.09 in - SSW 10.4 mph - N/A   Unknown
6:56 AM 30.9 °F 21.7 °F 19.9 °F 64% 30.07 in - South 11.5 mph - N/A   Unknown
7:56 AM 32.0 °F 23.0 °F 21.0 °F 64% 30.07 in - South 11.5 mph - N/A   Unknown
8:56 AM 35.1 °F 26.9 °F 21.0 °F 57% 30.06 in - SSW 11.5 mph 18.4 mph N/A   Unknown
9:56 AM 37.9 °F 30.9 °F 21.9 °F 53% 30.03 in - South 10.4 mph - N/A   Unknown
10:56 AM 41.0 °F 34.7 °F 23.0 °F 49% 30.00 in - South 10.4 mph 19.6 mph N/A   Unknown
11:56 AM 43.0 °F 36.4 °F 21.9 °F 43% 29.97 in - South 12.7 mph 18.4 mph N/A   Unknown
12:56 PM 37.9 °F 30.0 °F 28.9 °F 70% 29.98 in - SSW 12.7 mph 25.3 mph N/A   Unknown
1:56 PM 36.0 °F 28.5 °F 32.0 °F 86% 29.95 in - South 10.4 mph 18.4 mph 0.05 in   Unknown
2:56 PM 36.0 °F 25.3 °F 30.9 °F 82% 29.92 in - South 19.6 mph 25.3 mph 0.05 in   Unknown
3:56 PM 35.1 °F 24.8 °F 30.9 °F 85% 29.88 in - South 17.3 mph 24.2 mph 0.06 in   Unknown
4:56 PM 35.1 °F 27.4 °F 30.9 °F 85% 29.86 in - South 10.4 mph 19.6 mph 0.03 in   Unknown
5:56 PM 35.1 °F 27.9 °F 30.9 °F 85% 29.84 in - South 9.2 mph 18.4 mph 0.01 in   Unknown
6:56 PM 36.0 °F 29.6 °F 30.9 °F 82% 29.83 in - South 8.1 mph - 0.01 in   Unknown
7:56 PM 36.0 °F 28.0 °F 32.0 °F 86% 29.81 in - South 11.5 mph 16.1 mph N/A   Unknown
8:56 PM 36.0 °F 30.3 °F 32.0 °F 86% 29.80 in - South 6.9 mph - N/A   Unknown
9:56 PM 36.0 °F 29.6 °F 32.0 °F 86% 29.79 in - SSW 8.1 mph - N/A   Unknown
10:56 PM 36.0 °F 28.5 °F 32.0 °F 86% 29.76 in - SW 10.4 mph - N/A   Unknown
11:56 PM 36.0 °F 32.1 °F 32.0 °F 86% 29.75 in - SW 4.6 mph - N/A   Unknown